GSAT0219 (PRN E36)

Last updated on Sat Jul 20 2024 00:03:12 GMT+0000 (Coordinated Universal Time)

1 43566U 18060C 24200.88267020 -.00000069 00000+0 00000+0 0 9994 2 43566 57.3078 0.6187 0001197 295.9889 64.0076 1.70475973 37282

Satellite not in orbit

GSAT0219 (PRN E36)